STARLINK-32791, 62530

Orbit data source: Space-Track

STARLINK-32791, 62530 is a payload satellite owned by SpaceX/Seattle (US) in LEO that was launched on Wed, 08 Jan 2025 UTC via an FALCON 9 launch vehicle from the Air Force Eastern Test Range (AFETR). Payloads include a variety of satellites, spacecraft, and rockets equipped with specific instruments for various scientific and technological missions. These include communications satellites like Starlink; space stations such as the ISS; scientific satellites like the Hubble; Earth observation satellites from companies like Planet Labs, Umbra, and HawkEye 360; GPS; miniature CubeSats for education and research; and military/defense satellites.

Loading next visibility...
STARLINK-32791 details
Identifier
62530, 2025-004V
Orbit
LEO
Last TLE update12 hours ago
Origin
Flag of USSpaceX/Seattle (US)
ManufacturerSpaceX/Seattle
MissionOperational spacecraft
Bus & MotorSTARLINK V2M, Unknown motor
Mass730 kg wet, ~700 kg dry
Launch date (UTC)
2025-01-08 (1 month ago)
Launch vehicle
FALCON 9
Launch site
Air Force Eastern Test Range (AFETR)
Object type
Payload
Rocket body
Debris
Shape & HBRUnknown
Radar Cross SectionLarge (>1 m²)

Expand to show TLE details & history

TLE from 12 hours ago
0 STARLINK-32791
1 62530U 25004V   25046.95794722 -.00000224  00000-0  18983-5 0  9992
2 62530  43.0002 247.3376 0001432 262.6010  97.4684 15.40701962  7242
Epoch: 2025-02-15T22:59Z
Definitive object data (Epoch: 2025-02-15T22:59:26.639Z)
Latitude-0.00002°
Longitude116.27869°
Altitude443.938 km
Speed7.647 km/s
True Right ascension16h 29m 21s
True Declination0° 00' 00"
Sunlit
Object was in daylight at TLE epoch
Visualization TLE readout
Latitude-0.83315°
Longitude112.40205°
Altitude443.971 km
Speed7.647 km/s
Apparent Right ascension19h 08m 31s
Apparent Declination-49° 17' 07"
Sunlit
Object is in daylight
Visualization observer readout
Local Sidereal Time14:12:18
Azimuth137.992° SSE
Elevation-20.419°
Doppler factor1
Orbital elements
Apogee altitude446.97 km
Perigee altitude445.015 km
Semi-major axis6,824.13 km
Eccentricity0.0001432
Inclination43.0002°
RAAN247.3376°
Arg. of periapsis262.601°
True anomaly97.48467°
Mean anomaly97.4684°
Eccentric anomaly97.47654°
Mean motion3.8501 °/min
BSTAR0.0000018983
Orbital period93.5 mins
Loading maneuver chart data...
Loading historical data...
Loading historical data...
Loading historical data...
Loading historical data...
Loading historical data...
Loading historical data...
Loading historical data...

STARLINK-32791 Visibility forecast

Observer location: undefined°, undefined

Span
Click to sort rows by Start time (UTC) header in descending order
Start Az.
Max El. time (UTC)
Max El. Az.
Max El.
End time (UTC)
End Az.
6 mins2025-02-16 16:17:57.161Z209.769° SW2025-02-16 16:20:57.161Z147.779° SSE26.051°2025-02-16 16:23:57.161Z87.48° E
5 mins2025-02-16 17:56:57.161Z263.893° W2025-02-16 17:58:57.161Z9.16° NNE43.518°2025-02-16 18:01:57.161Z70.029° E
5 mins2025-02-16 19:34:57.161Z293.501° NW2025-02-16 19:36:57.161Z351.741° N37.124°2025-02-16 19:39:57.161Z76.892° E
5 mins2025-02-16 21:12:57.161Z286.115° WNW2025-02-16 21:14:57.161Z268.095° W42.782°2025-02-16 21:17:57.161Z113.971° SE
|